Weather History for KGLD - July, 2013

Change the Weather History Date:

Sunday, July 28, 2013

  Actual Average Record
Temperature  
Mean Temperature 58 °F 76 °F  
Max Temperature 62 °F 90 °F 106 °F (1943)
Min Temperature 53 °F 62 °F 52 °F (1958)
Degree Days  
Heating Degree Days 7 0  
Month to date heating degree days 7 0  
Since 1 June heating degree days 38 37  
Since 1 July heating degree days 7 0  
Cooling Degree Days 0 11  
Month to date cooling degree days 295 301  
Year to date cooling degree days 641 521  
Since 1 June cooling degree days 552 480  
Growing Degree Days 8 (Base 50)    
Moisture  
Dew Point 57 °F    
Average Humidity 95    
Maximum Humidity 100    
Minimum Humidity 90    
Precipitation  
Precipitation 0.11 in 0.11 in 1.15 in (1985)
Month to date precipitation 0.44 3.13  
Year to date precipitation 7.84 12.86  
Snow  
Snow 0.00 in 0.00 in - ()
Month to date snowfall 0.0 0.0  
Since 1 June snowfall 0.0 0.0  
Since 1 July snowfall 0.0 0.0  
Snow Depth 0.00 in    
Sea Level Pressure  
Sea Level Pressure 30.00 in    
Wind  
Wind Speed 9 mph (East)    
Max Wind Speed 17 mph    
Max Gust Speed 20 mph    
Visibility 3 miles    
Events Fog , Rain    
T = Trace of Precipitation, MM = Missing Value Source: NWS Daily Summary

Daily Weather History Graph

Daily Weather History Graph

Search for Another Location

Airport or City:

Trip Planner

Search our weather history database for the weather conditions in past years. The results will help you decide how hot, cold, wet, or windy it might be!

Date:

Astronomy

Jul. 28, 2013 Rise Set
Actual Time 5:43 AM MDT 8:02 PM MDT
Civil Twilight 5:13 AM MDT 8:32 PM MDT
Nautical Twilight 4:35 AM MDT 9:10 PM MDT
Astronomical Twilight 3:54 AM MDT 9:50 PM MDT
Moon 11:28 PM MDT (7/28) 12:25 PM MDT (7/28)
Length of Visible Light 15h 19m
Length of Day
14h 19m
Waning Gibbous, 60% of the Moon is Illuminated
Jul 28
Waning Gibbous
Jul 29
Last Quarter
Aug 6
New
Aug 14
First Quarter
Aug 20
Full

Hourly Weather History & Observations

Time (MDT) Temp. Dew Point Humidity Pressure Visibility Wind Dir Wind Speed Gust Speed Precip Events Conditions
12:14 AM 55.4 °F 53.6 °F 94% 30.11 in 10.0 mi East 5.8 mph - 0.00 in Rain Light Rain
12:25 AM 55.4 °F 53.6 °F 94% 30.11 in 10.0 mi ESE 4.6 mph - 0.01 in Rain Light Rain
12:53 AM 55.0 °F 53.1 °F 93% 30.00 in 10.0 mi ESE 10.4 mph - 0.01 in Rain Light Rain
1:53 AM 55.9 °F 54.0 °F 93% 30.01 in 10.0 mi Calm Calm - 0.01 in Rain Light Rain
2:53 AM 55.0 °F 54.0 °F 96% 29.96 in 8.0 mi ESE 10.4 mph - 0.00 in Rain Light Rain
3:53 AM 55.0 °F 54.0 °F 96% 29.93 in 8.0 mi ESE 12.7 mph - 0.02 in Rain Light Rain
4:53 AM 55.0 °F 54.0 °F 96% 29.97 in 5.0 mi NNE 4.6 mph - 0.01 in   Overcast
5:17 AM 53.6 °F 53.6 °F 100% 30.06 in 2.5 mi NE 4.6 mph - 0.00 in   Overcast
5:44 AM 55.4 °F 53.6 °F 94% 30.06 in 1.5 mi NE 5.8 mph - 0.00 in   Overcast
5:53 AM 54.0 °F 54.0 °F 100% 29.98 in 1.2 mi NNE 6.9 mph - 0.00 in   Overcast
6:12 AM 53.6 °F 53.6 °F 100% 30.06 in 0.5 mi NE 8.1 mph - N/A Fog Fog
6:30 AM 53.6 °F 53.6 °F 100% 30.06 in 0.2 mi ENE 8.1 mph - N/A Fog Fog
6:53 AM 54.0 °F 53.1 °F 97% 29.98 in 0.5 mi ENE 9.2 mph - N/A Fog Fog
7:53 AM 54.0 °F 53.1 °F 97% 29.99 in 0.8 mi ENE 8.1 mph - N/A   Mist
8:53 AM 55.0 °F 54.0 °F 96% 30.00 in 0.5 mi ENE 9.2 mph - N/A Fog Fog
9:48 AM 55.4 °F 55.4 °F 100% 30.05 in 1.5 mi ESE 5.8 mph - 0.01 in   Overcast
9:53 AM 55.9 °F 55.9 °F 100% 29.99 in 1.5 mi East 8.1 mph - 0.01 in   Overcast
10:53 AM 57.0 °F 55.9 °F 96% 29.98 in 1.2 mi ESE 8.1 mph - N/A   Overcast
11:08 AM 57.2 °F 57.2 °F 100% 30.04 in 0.5 mi ESE 8.1 mph - N/A Fog Fog
11:53 AM 57.9 °F 57.0 °F 97% 29.98 in 0.5 mi East 6.9 mph - N/A Fog Fog
12:04 PM 57.2 °F 57.2 °F 100% 30.04 in 1.2 mi ESE 6.9 mph - N/A   Overcast
12:51 PM 57.2 °F 57.2 °F 100% 30.04 in 2.5 mi East 8.1 mph - 0.00 in Rain Light Rain
12:53 PM 57.9 °F 57.0 °F 97% 29.99 in 2.5 mi East 9.2 mph - 0.00 in Rain Light Rain
1:12 PM 57.2 °F 57.2 °F 100% 30.05 in 1.5 mi East 8.1 mph - 0.00 in Rain Light Rain
1:35 PM 59.0 °F 57.2 °F 94% 30.04 in 3.0 mi East 8.1 mph - 0.02 in Rain Light Rain
1:53 PM 59.0 °F 57.9 °F 96% 29.97 in 8.0 mi East 10.4 mph - 0.02 in   Overcast
2:53 PM 60.1 °F 57.9 °F 93% 29.97 in 3.0 mi East 9.2 mph - N/A   Overcast
3:03 PM 60.8 °F 57.2 °F 88% 30.03 in 2.0 mi East 9.2 mph - N/A   Overcast
3:11 PM 60.8 °F 57.2 °F 88% 30.02 in 1.5 mi ESE 11.5 mph - N/A   Overcast
3:36 PM 60.8 °F 59.0 °F 94% 30.02 in 3.0 mi East 11.5 mph - N/A   Overcast
3:53 PM 60.1 °F 59.0 °F 96% 29.95 in 4.0 mi East 11.5 mph - N/A   Overcast
4:32 PM 60.8 °F 59.0 °F 94% 30.02 in 1.8 mi East 10.4 mph - N/A   Overcast
4:53 PM 61.0 °F 59.0 °F 93% 29.95 in 1.5 mi East 9.2 mph - N/A   Overcast
5:30 PM 60.8 °F 59.0 °F 94% 30.01 in 2.0 mi ESE 10.4 mph - N/A   Overcast
5:42 PM 60.8 °F 59.0 °F 94% 30.01 in 4.0 mi East 10.4 mph - N/A   Overcast
5:53 PM 61.0 °F 59.0 °F 93% 29.94 in 4.0 mi ESE 12.7 mph - N/A   Overcast
5:58 PM 60.8 °F 60.8 °F 100% 30.01 in 1.8 mi ESE 10.4 mph - N/A   Overcast
6:08 PM 60.8 °F 60.8 °F 100% 30.01 in 0.2 mi ESE 11.5 mph - N/A Fog Fog
6:53 PM 61.0 °F 60.1 °F 97% 29.93 in 0.2 mi ESE 13.8 mph - N/A Fog Fog
7:53 PM 61.0 °F 61.0 °F 100% 29.95 in 0.5 mi ESE 9.2 mph - N/A Fog Fog
8:48 PM 60.8 °F 60.8 °F 100% 30.03 in 1.2 mi ESE 10.4 mph - 0.01 in Rain Light Rain
8:53 PM 61.0 °F 61.0 °F 100% 29.96 in 1.5 mi SE 12.7 mph - 0.02 in Rain Light Rain
9:26 PM 62.6 °F 60.8 °F 94% 30.04 in 0.8 mi ESE 10.4 mph - 0.00 in   Mist
9:53 PM 62.1 °F 61.0 °F 96% 29.97 in 0.8 mi ESE 8.1 mph - 0.00 in   Mist
10:17 PM 62.6 °F 60.8 °F 94% 30.03 in 1.0 mi SE 8.1 mph - N/A   Mist
10:53 PM 62.1 °F 61.0 °F 96% 29.95 in 2.5 mi ESE 10.4 mph - 0.01 in   Overcast
11:33 PM 62.6 °F 60.8 °F 94% 30.02 in 1.8 mi SE 10.4 mph - N/A   Overcast
11:46 PM 62.6 °F 60.8 °F 94% 30.02 in 2.0 mi SE 8.1 mph - N/A   Overcast
11:53 PM 62.1 °F 61.0 °F 96% 29.94 in 1.8 mi ESE 9.2 mph - N/A   Overcast